Weather History for Tuscaloosa, AL

Change the Weather History Date:

Monday, March 11, 2013

  Actual Average Record
Temperature  
Mean Temperature 40 °F 55 °F  
Max Temperature 48 °F 68 °F 86 °F (1955)
Min Temperature 31 °F 43 °F 23 °F (1969)
Degree Days  
Heating Degree Days 25 10  
Month to date heating degree days 25 127  
Since 1 July heating degree days 1877 2217  
Growing Degree Days 5 (Base 50)    
Moisture  
Dew Point 47 °F    
Average Humidity 65    
Maximum Humidity 85    
Minimum Humidity 45    
Precipitation  
Precipitation 0.00 in 0.15 in 2.16 in (2013)
Month to date precipitation 0.00 1.77  
Year to date precipitation 10.77 12.44  
Sea Level Pressure  
Sea Level Pressure 29.90 in    
Wind  
Wind Speed 6 mph (NW)    
Max Wind Speed 17 mph    
Max Gust Speed 22 mph    
Visibility 5 miles    
Events Rain , Thunderstorm    
T = Trace of Precipitation, MM = Missing Value Source: NWS Daily Summary

Daily Weather History Graph

Daily Weather History Graph

Search for Another Location

Airport:

Trip Planner

Search our weather history database for the weather conditions in past years. The results will help you decide how hot, cold, wet, or windy it might be!

Date:

Astronomy

Mar. 11, 2013 Rise Set
Actual Time 7:05 AM CDT 6:55 PM CDT
Civil Twilight 6:40 AM CDT 7:20 PM CDT
Nautical Twilight 6:12 AM CDT 7:48 PM CDT
Astronomical Twilight 5:43 AM CDT 8:17 PM CDT
Moon 6:40 AM CDT (3/11) 7:04 PM CDT (3/11)
Length of Visible Light 12h 39m
Length of Day
11h 49m
Waning Crescent, 0% of the Moon is Illuminated
Mar 11
Waning Crescent
Mar 11
New
Mar 19
First Quarter
Mar 27
Full
Apr 2
Last Quarter

Hourly Weather History & Observations

Time (CDT) Temp. Windchill Dew Point Humidity Pressure Visibility Wind Dir Wind Speed Gust Speed Precip Events Conditions
12:53 AM 66.0 °F - 45.0 °F 47% 29.88 in 10.0 mi SSE 13.8 mph 29.9 mph N/A   Clear
1:53 AM 66.0 °F - 45.0 °F 47% 29.88 in 10.0 mi South 15.0 mph 26.5 mph N/A   Overcast
2:33 AM 62.6 °F - 48.2 °F 59% 29.88 in 4.0 mi South 15.0 mph 25.3 mph 0.02 in Rain , Thunderstorm Thunderstorms and Rain
2:53 AM 57.9 °F - 51.1 °F 78% 29.90 in 2.5 mi South 9.2 mph - 0.09 in Rain Heavy Rain
3:04 AM 57.2 °F - 51.8 °F 82% 29.89 in 1.8 mi South 11.5 mph 17.3 mph 0.12 in Rain Heavy Rain
3:30 AM 55.4 °F - 51.8 °F 88% 29.88 in 3.0 mi South 13.8 mph - 0.29 in Rain Rain
3:53 AM 55.9 °F - 53.1 °F 90% 29.86 in 4.0 mi South 9.2 mph - 0.37 in Rain Rain
4:25 AM 55.4 °F - 53.6 °F 94% 29.86 in 3.0 mi West 3.5 mph - 0.08 in Rain Light Rain
4:53 AM 55.9 °F - 53.1 °F 90% 29.83 in 3.0 mi East 3.5 mph - 0.16 in Rain Rain
5:11 AM 55.4 °F - 53.6 °F 94% 29.85 in 2.0 mi West 4.6 mph - 0.08 in Rain Rain
5:28 AM 55.4 °F - 53.6 °F 94% 29.85 in 2.0 mi Calm Calm - 0.17 in Rain Rain
5:48 AM 55.4 °F - 53.6 °F 94% 29.84 in 1.2 mi Calm Calm - 0.27 in Rain Heavy Rain
5:53 AM 55.0 °F - 54.0 °F 96% 29.83 in 1.5 mi Calm Calm - 0.29 in Rain Rain
6:02 AM 55.4 °F - 53.6 °F 94% 29.83 in 2.5 mi NW 3.5 mph - 0.03 in Rain Rain
6:19 AM 55.4 °F - 53.6 °F 94% 29.84 in 1.5 mi West 3.5 mph - 0.12 in Rain Rain
6:35 AM 55.4 °F - 53.6 °F 94% 29.84 in 2.0 mi West 5.8 mph - 0.20 in Rain Light Rain
6:46 AM 55.4 °F - 53.6 °F 94% 29.85 in 2.0 mi WNW 5.8 mph - 0.24 in Rain Rain
6:53 AM 55.9 °F - 53.1 °F 90% 29.84 in 1.8 mi WNW 10.4 mph - 0.28 in Rain Heavy Rain
7:01 AM 55.4 °F - 51.8 °F 88% 29.86 in 2.0 mi WNW 8.1 mph 17.3 mph 0.05 in Rain Heavy Rain
7:05 AM 55.4 °F - 51.8 °F 88% 29.87 in 1.8 mi West 10.4 mph - 0.08 in Rain Heavy Rain
7:15 AM 55.4 °F - 51.8 °F 88% 29.88 in 3.0 mi WNW 8.1 mph 18.4 mph 0.12 in Rain Rain
7:25 AM 53.6 °F - 51.8 °F 94% 29.87 in 5.0 mi NW 11.5 mph - 0.13 in Rain Light Rain
7:32 AM 53.6 °F - 51.8 °F 94% 29.88 in 5.0 mi WNW 9.2 mph - 0.13 in Rain Light Rain
7:53 AM 54.0 °F - 51.1 °F 90% 29.88 in 2.5 mi Variable 3.5 mph - 0.19 in Rain Rain
8:03 AM 53.6 °F - 51.8 °F 94% 29.88 in 1.8 mi Variable 3.5 mph - 0.06 in Rain Heavy Rain
8:19 AM 53.6 °F - 51.8 °F 94% 29.90 in 0.8 mi Calm Calm - 0.18 in Rain Rain
8:26 AM 53.6 °F - 51.8 °F 94% 29.90 in 1.8 mi West 3.5 mph - 0.20 in Rain Rain
8:53 AM 51.1 °F - 48.0 °F 89% 29.94 in 2.0 mi West 9.2 mph - 0.30 in Rain Rain
9:00 AM 51.8 °F - 48.2 °F 88% 29.95 in 1.5 mi WNW 13.8 mph - 0.03 in Rain Rain
9:09 AM 50.0 °F - 46.4 °F 87% 29.94 in 2.0 mi WNW 10.4 mph 20.7 mph 0.07 in Rain Heavy Rain
9:17 AM 50.0 °F - 46.4 °F 87% 29.94 in 2.5 mi WNW 11.5 mph - 0.09 in Rain Rain
9:25 AM 50.0 °F - 46.4 °F 87% 29.93 in 2.0 mi NNW 11.5 mph - 0.12 in Rain Rain
9:30 AM 48.2 °F - 44.6 °F 87% 29.93 in 1.8 mi NW 8.1 mph - 0.15 in Rain Rain
9:38 AM 48.2 °F - 46.4 °F 93% 29.94 in 1.0 mi Variable 3.5 mph - 0.21 in Rain Heavy Rain
9:53 AM 48.9 °F - 46.0 °F 90% 29.94 in 1.5 mi NW 5.8 mph - 0.27 in Rain Rain
10:17 AM 48.2 °F - 46.4 °F 93% 29.91 in 3.0 mi East 4.6 mph - 0.12 in Rain Light Rain
10:40 AM 48.2 °F - 46.4 °F 93% 29.92 in 4.0 mi Calm Calm - 0.14 in Rain Light Rain
10:53 AM 48.9 °F - 46.0 °F 90% 29.90 in 7.0 mi NE 5.8 mph - 0.14 in Rain Light Rain
11:08 AM 48.2 °F - 46.4 °F 93% 29.93 in 4.0 mi Calm Calm - 0.01 in Rain Light Rain
11:40 AM 48.2 °F - 46.4 °F 93% 29.94 in 5.0 mi NW 8.1 mph - 0.03 in Rain Light Rain
11:50 AM 48.2 °F - 44.6 °F 87% 29.94 in 7.0 mi WNW 6.9 mph - 0.03 in Rain Light Rain
11:53 AM 48.9 °F - 46.0 °F 90% 29.94 in 7.0 mi WNW 8.1 mph - 0.03 in Rain Light Rain
12:49 PM 46.4 °F 41.9 °F 42.8 °F 87% 29.92 in 6.0 mi NNW 9.2 mph - 0.02 in Rain Light Rain
12:53 PM 46.9 °F - 43.0 °F 86% 29.93 in 7.0 mi NNW 8.1 mph - 0.02 in Rain Light Rain
1:25 PM 46.4 °F 45.2 °F 42.8 °F 87% 29.93 in 6.0 mi NNW 3.5 mph - 0.01 in Rain Light Rain
1:33 PM 46.4 °F 43.5 °F 42.8 °F 87% 29.91 in 4.0 mi NNW 5.8 mph - 0.02 in Rain Light Rain
1:53 PM 46.9 °F - 43.0 °F 86% 29.91 in 7.0 mi NW 5.8 mph - 0.02 in Rain Light Rain
2:05 PM 48.2 °F - 42.8 °F 82% 29.91 in 10.0 mi NNW 3.5 mph - 0.00 in   Overcast
2:24 PM 48.2 °F - 42.8 °F 82% 29.91 in 10.0 mi Calm Calm - 0.00 in   Overcast
2:46 PM 48.2 °F - 42.8 °F 82% 29.91 in 10.0 mi NNW 3.5 mph - 0.00 in   Overcast
2:53 PM 48.0 °F - 44.1 °F 86% 29.91 in 10.0 mi NW 4.6 mph - 0.00 in   Overcast
3:19 PM 48.2 °F - 44.6 °F 87% 29.90 in 10.0 mi North 4.6 mph - N/A   Overcast
3:31 PM 48.2 °F - 44.6 °F 87% 29.90 in 10.0 mi NNW 4.6 mph - N/A   Overcast
3:53 PM 48.9 °F - 44.1 °F 83% 29.89 in 10.0 mi NW 9.2 mph - N/A   Overcast
4:53 PM 51.1 °F - 42.1 °F 71% 29.90 in 10.0 mi NNW 8.1 mph 16.1 mph N/A   Mostly Cloudy
5:44 PM 51.8 °F - 39.2 °F 62% 29.92 in 10.0 mi NNW 5.8 mph - N/A   Scattered Clouds
6:53 PM 48.9 °F - 37.9 °F 66% 29.94 in 10.0 mi Calm Calm - N/A   Partly Cloudy
7:53 PM 46.0 °F - 39.0 °F 76% 29.95 in 10.0 mi Calm Calm - N/A   Clear
8:53 PM 44.1 °F - 39.9 °F 85% 29.96 in 10.0 mi Calm Calm - N/A   Overcast
9:53 PM 46.9 °F - 37.9 °F 71% 30.00 in 10.0 mi NNW 9.2 mph - N/A   Overcast
10:53 PM 44.1 °F 40.1 °F 36.0 °F 73% 30.01 in 10.0 mi NW 6.9 mph - N/A   Clear
11:53 PM 43.0 °F 38.8 °F 34.0 °F 71% 30.02 in 10.0 mi NNW 6.9 mph - N/A   Clear